Tracking 29594 objects as of 20-Sep-2024
HD Live streaming from Space Station
objects crossing your sky now

FENGYUN 1C DEB

Track FENGYUN 1C DEB now!
10-day predictions


NORAD ID: 33716
Int'l Code: 1999-025DHD
Perigee: 725.4 km
Apogee: 859.4 km
Inclination: 98.9 °
Period: 100.6 minutes
Semi major axis: 7163 km
RCS: 0.0093 m2 (small)
Launch date: May 10, 1999
Source: People's Republic of China (PRC)
Launch site: Taiyaun Space Center, China (TSC)

Note: This is SATELLITE DEBRIS
Your satellite tracking list
Your tracking list is empty




NASA's NSSDC Master Catalog

Two Line Element Set (TLE):
1 33716U 99025DHD 24263.46328321  .00001015  00000-0  37752-3 0  9995
2 33716  98.8623 172.9496 0093506 231.6323 127.6432 14.31934744587262
Source of the keplerian elements: AFSPC